Meteo orario Abella de la Conca

Oggi, 8 Marzo, Lunedi

Tempo Temperatura Precipitazioni Vento Pressione Umidità
00:00 +2°C° 0 mm 0 m/s 652 mm Hg 92%
01:00 +2°C° 0 mm 0 m/s 652 mm Hg 91%
02:00 +2°C° 0 mm 0 m/s 652 mm Hg 90%
03:00 +2°C° 0 mm 0 m/s 652 mm Hg 90%
04:00 +2°C° 0 mm 0 m/s 652 mm Hg 90%
05:00 +2°C° 0 mm 0 m/s 652 mm Hg 90%
06:00 +3°C° 0 mm 1 m/s 651 mm Hg 90%
07:00 +4°C° 0 mm 1 m/s 652 mm Hg 87%
08:00 +5°C° 0 mm 1 m/s 652 mm Hg 83%
09:00 +5°C° 0 mm 0 m/s 653 mm Hg 80%
10:00 +6°C° 0.2 mm 1 m/s 653 mm Hg 77%
11:00 +7°C° 0.2 mm 1 m/s 653 mm Hg 74%
12:00 +7°C° 0.2 mm 2 m/s 653 mm Hg 71%
13:00 +6°C° 0.6 mm 2 m/s 653 mm Hg 75%
14:00 +6°C° 0.6 mm 2 m/s 653 mm Hg 78%
15:00 +5°C° 0.6 mm 2 m/s 652 mm Hg 82%
16:00 +5°C° 0.9 mm 1 m/s 652 mm Hg 85%
17:00 +5°C° 0.9 mm 1 m/s 652 mm Hg 89%
18:00 +4°C° 0.9 mm 1 m/s 652 mm Hg 92%
19:00 +4°C° 0.3 mm 1 m/s 652 mm Hg 91%
20:00 +3°C° 0.3 mm 1 m/s 653 mm Hg 91%
21:00 +3°C° 0.3 mm 1 m/s 653 mm Hg 91%
22:00 +2°C° 0 mm 1 m/s 653 mm Hg 90%
23:00 +2°C° 0 mm 1 m/s 653 mm Hg 89%

Domani, 9 Marzo, Martedi

Tempo Temperatura Precipitazioni Vento Pressione Umidità
00:00 +1°C° 0 mm 1 m/s 653 mm Hg 88%
01:00 +1°C° 0 mm 1 m/s 653 mm Hg 88%
02:00 +1°C° 0 mm 1 m/s 652 mm Hg 87%
03:00 +1°C° 0 mm 1 m/s 652 mm Hg 86%
04:00 -2°C° 0 mm 2 m/s 652 mm Hg 86%
05:00 -2°C° 0 mm 2 m/s 652 mm Hg 85%
06:00 -2°C° 0 mm 2 m/s 652 mm Hg 85%
07:00 +1°C° 0 mm 1 m/s 653 mm Hg 78%
08:00 +3°C° 0 mm 1 m/s 654 mm Hg 72%
09:00 +5°C° 0 mm 1 m/s 654 mm Hg 65%
10:00 +6°C° 0 mm 1 m/s 655 mm Hg 60%
11:00 +6°C° 0 mm 2 m/s 655 mm Hg 56%
12:00 +8°C° 0 mm 2 m/s 655 mm Hg 51%
13:00 +8°C° 0 mm 2 m/s 655 mm Hg 51%
14:00 +8°C° 0 mm 3 m/s 655 mm Hg 51%
15:00 +8°C° 0 mm 3 m/s 655 mm Hg 51%
16:00 +6°C° 0 mm 2 m/s 654 mm Hg 58%
17:00 +4°C° 0 mm 2 m/s 654 mm Hg 64%
18:00 +3°C° 0 mm 1 m/s 653 mm Hg 71%
19:00 +1°C° 0 mm 2 m/s 653 mm Hg 72%
20:00 -1°C° 0 mm 2 m/s 654 mm Hg 73%
21:00 -2°C° 0 mm 2 m/s 654 mm Hg 74%
22:00 -2°C° 0 mm 2 m/s 654 mm Hg 72%
23:00 -2°C° 0 mm 2 m/s 654 mm Hg 69%

Dopodomani, 10 Marzo, Mercoledi

Tempo Temperatura Precipitazioni Vento Pressione Umidità
00:00 -3°C° 0 mm 2 m/s 654 mm Hg 67%
01:00 -3°C° 0 mm 2 m/s 654 mm Hg 62%
02:00 -1°C° 0 mm 1 m/s 654 mm Hg 58%
03:00 -1°C° 0 mm 1 m/s 654 mm Hg 53%
04:00 -1°C° 0 mm 1 m/s 654 mm Hg 50%
05:00 -1°C° 0 mm 1 m/s 654 mm Hg 47%
06:00 -1°C° 0 mm 1 m/s 654 mm Hg 43%
07:00 +1°C° 0 mm 1 m/s 655 mm Hg 40%
08:00 +3°C° 0 mm 1 m/s 656 mm Hg 37%
09:00 +6°C° 0 mm 1 m/s 657 mm Hg 34%
10:00 +7°C° 0 mm 1 m/s 658 mm Hg 34%
11:00 +7°C° 0 mm 2 m/s 658 mm Hg 34%
12:00 +9°C° 0 mm 2 m/s 658 mm Hg 34%
13:00 +9°C° 0 mm 2 m/s 658 mm Hg 36%
14:00 +9°C° 0 mm 2 m/s 658 mm Hg 38%
15:00 +9°C° 0 mm 2 m/s 658 mm Hg 41%
16:00 +7°C° 0 mm 2 m/s 657 mm Hg 52%
17:00 +6°C° 0 mm 1 m/s 656 mm Hg 63%
18:00 +4°C° 0 mm 1 m/s 656 mm Hg 74%
19:00 +3°C° 0 mm 1 m/s 656 mm Hg 74%
20:00 +3°C° 0 mm 1 m/s 656 mm Hg 73%
21:00 +3°C° 0 mm 1 m/s 657 mm Hg 73%
22:00 +3°C° 0 mm 1 m/s 657 mm Hg 71%
23:00 +2°C° 0 mm 1 m/s 657 mm Hg 70%

11 Marzo, Giovedi

Tempo Temperatura Precipitazioni Vento Pressione Umidità
00:00 +2°C° 0 mm 1 m/s 656 mm Hg 68%
01:00 +2°C° 0 mm 1 m/s 656 mm Hg 66%
02:00 +2°C° 0 mm 1 m/s 656 mm Hg 64%
03:00 +2°C° 0 mm 1 m/s 656 mm Hg 63%
04:00 +2°C° 0 mm 1 m/s 656 mm Hg 61%
05:00 +2°C° 0 mm 1 m/s 655 mm Hg 60%
06:00 +2°C° 0 mm 1 m/s 655 mm Hg 59%
07:00 +4°C° 0 mm 1 m/s 656 mm Hg 54%
08:00 +6°C° 0 mm 0 m/s 657 mm Hg 49%
09:00 +8°C° 0 mm 0 m/s 658 mm Hg 45%
10:00 +10°C° 0 mm 1 m/s 658 mm Hg 43%
11:00 +11°C° 0 mm 1 m/s 658 mm Hg 41%
12:00 +13°C° 0 mm 2 m/s 659 mm Hg 40%
13:00 +13°C° 0 mm 2 m/s 658 mm Hg 41%
14:00 +13°C° 0 mm 2 m/s 658 mm Hg 43%
15:00 +13°C° 0 mm 2 m/s 657 mm Hg 45%
16:00 +10°C° 0 mm 2 m/s 657 mm Hg 54%
17:00 +9°C° 0 mm 1 m/s 656 mm Hg 63%
18:00 +6°C° 0 mm 0 m/s 656 mm Hg 72%
19:00 +6°C° 0 mm 1 m/s 656 mm Hg 74%
20:00 +6°C° 0 mm 1 m/s 656 mm Hg 76%
21:00 +5°C° 0 mm 1 m/s 656 mm Hg 78%
22:00 +5°C° 0 mm 1 m/s 656 mm Hg 79%
23:00 +5°C° 0 mm 1 m/s 656 mm Hg 80%

12 Marzo, Venerdi

Tempo Temperatura Precipitazioni Vento Pressione Umidità
00:00 +4°C° 0 mm 1 m/s 656 mm Hg 81%
01:00 +4°C° 0 mm 1 m/s 656 mm Hg 82%
02:00 +4°C° 0 mm 1 m/s 655 mm Hg 82%
03:00 +4°C° 0 mm 1 m/s 655 mm Hg 82%
04:00 +4°C° 0 mm 1 m/s 655 mm Hg 82%
05:00 +4°C° 0 mm 1 m/s 655 mm Hg 83%
06:00 +4°C° 0 mm 1 m/s 655 mm Hg 83%
07:00 +5°C° 0 mm 1 m/s 655 mm Hg 79%
08:00 +6°C° 0 mm 1 m/s 656 mm Hg 75%
09:00 +7°C° 0 mm 1 m/s 656 mm Hg 71%
10:00 +8°C° 0 mm 1 m/s 656 mm Hg 70%
11:00 +7°C° 0 mm 2 m/s 656 mm Hg 69%
12:00 +8°C° 0 mm 2 m/s 656 mm Hg 68%
13:00 +8°C° 0.2 mm 2 m/s 656 mm Hg 69%
14:00 +8°C° 0.2 mm 3 m/s 656 mm Hg 70%
15:00 +9°C° 0.2 mm 3 m/s 655 mm Hg 71%
16:00 +7°C° 0.3 mm 2 m/s 655 mm Hg 76%
17:00 +6°C° 0.3 mm 2 m/s 655 mm Hg 81%
18:00 +6°C° 0.3 mm 1 m/s 654 mm Hg 87%
19:00 +5°C° 0.1 mm 1 m/s 654 mm Hg 88%
20:00 +4°C° 0.1 mm 1 m/s 655 mm Hg 89%
21:00 +3°C° 0.1 mm 1 m/s 655 mm Hg 89%
22:00 +3°C° 0 mm 1 m/s 655 mm Hg 89%
23:00 +2°C° 0 mm 1 m/s 655 mm Hg 89%

13 Marzo, Sabato

Tempo Temperatura Precipitazioni Vento Pressione Umidità
00:00 +2°C° 0 mm 1 m/s 655 mm Hg 89%
01:00 +2°C° 0 mm 1 m/s 655 mm Hg 88%
02:00 +1°C° 0 mm 1 m/s 654 mm Hg 87%
03:00 +1°C° 0 mm 1 m/s 654 mm Hg 86%
04:00 0°C° 0 mm 1 m/s 654 mm Hg 85%
05:00 0°C° 0 mm 1 m/s 654 mm Hg 83%
06:00 -1°C° 0 mm 1 m/s 654 mm Hg 82%
07:00 +1°C° 0 mm 1 m/s 655 mm Hg 75%
08:00 +4°C° 0 mm 1 m/s 656 mm Hg 67%
09:00 +6°C° 0 mm 1 m/s 656 mm Hg 60%
10:00 +7°C° 0 mm 1 m/s 657 mm Hg 55%
11:00 +7°C° 0 mm 2 m/s 657 mm Hg 51%
12:00 +8°C° 0 mm 2 m/s 658 mm Hg 47%
13:00 +9°C° 0 mm 2 m/s 657 mm Hg 47%
14:00 +9°C° 0 mm 2 m/s 657 mm Hg 47%
15:00 +9°C° 0 mm 2 m/s 657 mm Hg 46%
16:00 +7°C° 0 mm 2 m/s 657 mm Hg 54%
17:00 +7°C° 0 mm 1 m/s 656 mm Hg 62%
18:00 +5°C° 0 mm 1 m/s 656 mm Hg 70%
19:00 +4°C° 0 mm 1 m/s 656 mm Hg 72%
20:00 +2°C° 0 mm 2 m/s 657 mm Hg 74%
21:00 +2°C° 0 mm 2 m/s 657 mm Hg 77%
22:00 +1°C° 0 mm 2 m/s 657 mm Hg 77%
23:00 +1°C° 0 mm 2 m/s 657 mm Hg 77%
Mostrare altro

Abbiamo bisogno del tuo consenso

Meteoprog e i nostri fornitori di servizi possono memorizzare e accedere a dati personali come cookie, identificatori di dispositivi o altre tecnologie simili sul tuo dispositivo e possono elaborare tali dati per personalizzare i contenuti e gli annunci, nonché fornire funzionalità dei social media e analizzarne il traffico.

  • Archiviare e/o accedere alle informazioni sul tuo dispositivo

    Cookie, identificatori di dispositivi o altre informazioni possono essere memorizzati o resi accessibili sul tuo dispositivo per le finalità sopra indicate.

  • Annunci e contenuti personalizzati, misurazione di annunci e contenuti, approfondimenti sul pubblico e sviluppo di prodotti

    Gli annunci e i contenuti possono essere personalizzati in base a un profilo. È possibile aggiungere più dati per personalizzare meglio annunci e contenuti. È possibile misurare il rendimento degli annunci e dei contenuti. È possibile ricavare informazioni sul pubblico che ha visto gli annunci e i contenuti. Tali dati possono essere utilizzati per sviluppare o migliorare l'esperienza, i sistemi e il software dell'utente.

Cliccando su “Accetto”, acconsenti all'uso di cookie, identificatori di dispositivo, web beacon o altre tecnologie simili. Puoi modificare le impostazioni nel browser del tuo dispositivo.

Per determinati scopi, è possibile fare affidamento su interessi legali, piuttosto che sul consenso. Puoi approfondire questo argomento consultando la nostra Informativa sulla privacy e sui cookie.